Regional Weather Roundup
Issued by NWS

Home | Current Version | Previous Version | Graphics & Text | Print | Product List | Glossary On
Versions: 1 2 3 4 5 6 7 8 9 10 11 12 13 14 15 16 17 18 19 20 21 22 23 24 25 26 27
000
ASUS45 KTFX 242310
RWRMT
MONTANA REGIONAL WEATHER ROUNDUP
NATIONAL WEATHER SERVICE GREAT FALLS MT
400 PM MST SAT FEB 24 2018

NOTE: "FAIR" INDICATES FEW OR NO CLOUDS BELOW 12000 FEET WITH NO
SIGNIFICANT WEATHER AND/OR OBSTRUCTIONS TO VISIBILITY.

MTZ001>007-043-250000-
WEST OF THE DIVIDE

CITY           SKY/WX    TMP DP  RH WIND       PRES   REMARKS
KALISPELL      CLOUDY    26  17  68 S6        29.81R WCI  19
MISSOULA       LGT SNOW  24  21  88 CALM      29.82R FOG
BUTTE          CLOUDY    25  15  66 S7        29.67S WCI  17
MULLAN PASS    CLOUDY    19  17  92 VRB5      29.68R
ANACONDA         N/A     27  18  69 S7        29.69S WCI  19
DEER LODGE       N/A     23  21  93 NW10      29.73R VSB 1   WCI  12
HAMILTON         N/A     30  23  74 N13       29.77R WCI  20
PLAINS           N/A     28  17  63 MISG      29.86S
RONAN            N/A     23  21  93 S6        29.83S WCI  16
$$

MTZ008-052>055-250000-
SOUTHWEST MONTANA

CITY           SKY/WX    TMP DP  RH WIND       PRES   REMARKS
BOZEMAN        PTSUNNY   32  12  43 W15       29.69F WCI  22
DILLON         FLURRIES  19  12  74 SW15      29.70R WCI   5
ENNIS          PTSUNNY   21   9  58 S22G30    29.75R WCI   5
W YELLOWSTONE  LGT SNOW  16   9  73 SW9G16    29.71F WCI   4
THREE FORKS      N/A     29  15  55 S30       29.72S WCI  14
TWIN BRIDGES     N/A     28  12  51 S3        29.74
$$

MTZ009-010-012-014-046-048-049-054-250000-
EAST SLOPES AND CENTRAL MONTANA

CITY           SKY/WX    TMP DP  RH WIND       PRES   REMARKS
CUT BANK       FAIR      28  11  48 W6        29.65S WCI  22
GREAT FALLS    FAIR      24  15  68 W8        29.68R WCI  15
MALMSTROM AFB  FAIR      29  18  63 N5        29.69S
HELENA         CLOUDY    31  18  58 NW9       29.71R WCI  23
AUGUSTA        FAIR      26  12  54 NW13      29.65S WCI  15
BOWMANS CRNR   FAIR      25  12  57 E5        29.65R
CHOTEAU          N/A     28  12  50 CALM      29.68R
FAIRFIELD      FAIR      27  14  57 W9        29.66R WCI  18
POWER          FAIR      23  15  72 CALM      29.67S
RAYNESFORD     FAIR      29  11  48 W21       29.66R WCI  15
ULM            PTSUNNY   28  15  59 W10       29.69R WCI  18
WHITE SULPHUR    N/A     23  14  68 SW13G20   29.65S WCI  11
$$

MTZ011-013-016-021-045-047-050-051-250000-
NORTH CENTRAL MONTANA

CITY           SKY/WX    TMP DP  RH WIND       PRES   REMARKS
HAVRE          LGT SNOW  21  18  88 SW15      29.70R FOG     WCI   8
LEWISTOWN      FAIR      25  11  55 NW13      29.65R WCI  14
N BAR RANCH    FAIR      25   9  50 NW18G26   29.65R WCI  11
CHINOOK          N/A     25  19  80 W17       29.69R WCI  11
GEYSER         FAIR      26  15  64 W14       29.65R WCI  14
STANFORD       FAIR      25  13  61 NW16      29.64R WCI  12
WINIFRED       PTSUNNY   24  13  62 NW21G29   29.65R WCI   9
$$

MTZ017>020-022>027-061-062-250000-
NORTHEAST MONTANA

CITY           SKY/WX    TMP DP  RH WIND       PRES   REMARKS
GLASGOW        PTSUNNY   22  15  75 W17       29.61S WCI   8
GLENDIVE       FAIR      22  13  68 SW14      29.63F WCI   9
JORDAN           N/A     23  14  68 NW8       29.63R WCI  14
MALTA          CLOUDY    23  18  80 W22       29.64S WCI   8
SIDNEY         PTSUNNY   21  13  71 SW10      29.63F WCI  10
WOLF POINT     CLOUDY    25  17  72 W14       29.62F WCI  13
PLENTYWOOD       N/A     23  18  80 W14       29.55F WCI  11
POPLAR           N/A     21  16  79 W10       29.62S WCI  10
SCOBEY           N/A     22  15  74 W16       29.56  WCI   8
$$

MTZ028>42-056>058-250000-
SOUTHCENTRAL AND SOUTHEAST MONTANA

CITY           SKY/WX    TMP DP  RH WIND       PRES   REMARKS
BAKER          FAIR      20  12  71 SW13      29.63F WCI   7
BILLINGS       FAIR      29  14  53 SW13      29.68F WCI  19
LIVINGSTON     CLOUDY    29  14  53 SW26G36   29.67S WCI  14
MILES CITY     FAIR      22  13  68 W9        29.66F WCI  12
BIG TIMBER     SUNNY     28  14  54 W28G35    29.68S WCI  13
EKALAKA          N/A     21   9  60 SW10      29.64  WCI  10
FORSYTH          N/A     30  14  51 W8        29.66F WCI  23
HARLOWTON      FAIR      26  15  61 NW17      29.66R WCI  14
LAUREL           N/A     25  12  58 SW9       29.71S WCI  15
$$

REGIONAL REPORTS...DAKOTAS

CITY           SKY/WX    TMP DP  RH WIND       PRES   REMARKS
WILLISTON      FAIR      20  12  71 SW7       29.60F WCI  11
MINOT          PTSUNNY   22  13  68 SW9       29.60F WCI  12
DICKINSON      FAIR      20  11  68 W8        29.60F WCI  10
BEACH          PTSUNNY   19  10  68 W14       29.65S WCI   6
CROSBY         CLOUDY    19  14  79 SW15      29.57F WCI   5
TIOGA          PTSUNNY   19  14  79 SW13      29.58S WCI   7
WATFORD CITY   FAIR      23  12  63 SW10      29.60F WCI  12
BISMARCK       FAIR      22  14  71 SW7       29.67F WCI  13
GRAND FORKS    LGT SNOW  16  13  88 S8        29.77F VSB 3/4 WCI   5
FARGO          SNOW      16  14  92 NE8       29.73F VSB 1/2 WCI   5
BUFFALO SD       N/A     19  10  68 W14       29.59S WCI   6
RAPID CITY     PTSUNNY   25  15  66 N20       29.68S WCI  11
$$

REGIONAL REPORTS...WYOMING/IDAHO/WASHINGTON

CITY           SKY/WX    TMP DP  RH WIND       PRES   REMARKS
GILLETTE       FAIR      25   9  50 SW10      29.67F WCI  15
SHERIDAN       FAIR      28  12  51 CALM      29.68S
BUFFALO WY     FAIR      24   4  42 S10       29.66R WCI  14
CODY           FAIR      28   5  37 W22G35    29.68S WCI  14
YELLOWSTONE LA   N/A     11   4  73 VRB7      29.71S WCI   0
IDAHO FALLS    CLOUDY    24  18  77 SW18      29.86F WCI  10
SALMON         LGT SNOW  28  23  80 NE3       29.80R
BOISE          LGT SNOW  30  28  92 S5        29.91R FOG
SPOKANE        CLOUDY    30  24  78 NW7       29.90R WCI  23
$$

REGIONAL REPORTS...ALBERTA

CITY           SKY/WX    TMP DP  RH WIND       PRES   REMARKS
CALGARY        MOSUNNY   32   0  25 W13G20    29.58F WCI  22
CARDSTON         N/A     28  14  54 NW8         N/A  WCI  20
EDMONTON       SUNNY     23  12  63 N6        29.58F WCI  16
FORT MCMURRAY  PTSUNNY   18   9  68 NW8       29.63S WCI   7
HIGH LEVEL     MOSUNNY   19   9  63 S10       29.55F WCI   8
LETHBRIDGE     MOSUNNY   27  16  63 W10       29.66S WCI  17
LLOYDMINSTER   FLURRIES  25  19  80 NW12G18   29.53R WCI  14
MEDICINE HAT   MOSUNNY   25  14  63 W13       29.66R WCI  13
MILK RIVER       N/A     28  10  47 NW15G21     N/A  WCI  17
PEACE RIVER    FLURRIES  19  14  79 S7        29.55F WCI  10
PINCHER CREEK  SUNNY     27   9  46 W16G24    29.64S WCI  14
WATERTON GATE    N/A     28   9  43 SW16G23     N/A  WCI  17
$$

REGIONAL REPORTS...SASKATCHEWAN

CITY           SKY/WX    TMP DP  RH WIND       PRES   REMARKS
CORONACH         N/A     21  18  86 W8          N/A  WCI  12
CYPRESS HILLS    N/A     19   5  53 NW10        N/A  WCI   8
MOOSE JAW        N/A     27  23  86 W9          N/A  WCI  17
PRINCE ALBERT  FLURRIES  27  18  69 NW14      29.50R WCI  15
REGINA         LGT SNOW  25  23  93 SW6       29.53S WCI  18
ROCKGLEN         N/A     25  19  80 W10G18      N/A  WCI  15
SASKATOON      PTSUNNY   27  18  69 SW7       29.52S WCI  19
VAL MARIE        N/A     21  18  86 W14         N/A  WCI   8
$$




USA.gov is the U.S. government's official web portal to all federal, state and local government web resources and services.